FW4737 Weather Reports


time (UTC)temp
C
wind
direction
speed
KPH
gust
KPH
rain 1hr
cm
rain 24hr
cm
rain mn
cm
humidity
%
barometer
mb
20260504050633 10 105 0.0 1.6 0.00 0.00 0.00 93 1018.4
20260504050130 9 111 0.0 0.0 0.00 0.00 0.00 92 1018.5
20260504045626 10 82 0.0 0.0 0.00 0.00 0.00 91 1018.6
20260504045341 10 126 0.0 0.0 0.00 0.00 0.00 92 1018.7
20260504044616 10 101 0.0 0.0 0.00 0.00 0.00 90 1018.3
20260504044113 10 98 0.0 0.0 0.00 0.00 0.00 89 1018.1
20260504043602 10 134 0.0 0.0 0.00 0.00 0.00 88 1018.3
20260504043019 10 106 0.0 0.0 0.00 0.00 0.00 88 1018.4
20260504042443 10 139 0.0 0.0 0.00 0.00 0.00 87 1018.2
20260504041919 10 112 0.0 0.0 0.00 0.00 0.00 88 1018.2
20260504041416 10 105 0.0 0.0 0.00 0.00 0.00 88 1018.2
20260504040914 10 70 0.0 0.0 0.00 0.00 0.00 88 1018.3
20260504040618 11 100 0.0 1.6 0.00 0.00 0.00 86 1018.5
20260504035831 11 98 1.6 1.6 0.00 0.00 0.00 87 1018.4
20260504035327 10 97 0.0 1.6 0.00 0.00 0.00 88 1018.3
20260504035045 10 77 0.0 0.0 0.00 0.00 0.00 90 1018.3
20260504034537 10 209 0.0 4.8 0.00 0.00 0.00 88 1018.2
20260504034034 10 115 0.0 0.0 0.00 0.00 0.00 89 1018.3
20260504033312 10 92 0.0 0.0 0.00 0.00 0.00 87 1018.4
20260504032806 10 325 0.0 1.6 0.00 0.00 0.00 88 1018.4
20260504032303 10 132 0.0 0.0 0.00 0.00 0.00 87 1018.2
20260504032018 10 133 0.0 0.0 0.00 0.00 0.00 84 1018.2
20260504031254 11 132 0.0 0.0 0.00 0.00 0.00 83 1018.1
20260504030751 11 133 0.0 0.0 0.00 0.00 0.00 82 1018.2
20260504030246 11 315 0.0 1.6 0.00 0.00 0.00 81 1018.4
20260504030001 12 85 1.6 3.2 0.00 0.00 0.00 84 1018.0
20260504025459 11 95 3.2 3.2 0.00 0.00 0.00 82 1018.2
20260504024732 11 93 0.0 0.0 0.00 0.00 0.00 80 1018.4
20260504024228 11 109 0.0 0.0 0.00 0.00 0.00 80 1018.2
20260504023723 11 47 0.0 0.0 0.00 0.00 0.00 78 1018.3
20260504023219 11 87 0.0 0.0 0.00 0.00 0.00 81 1018.2
20260504022934 11 88 0.0 0.0 0.00 0.00 0.00 80 1018.2
20260504022212 11 88 0.0 0.0 0.00 0.00 0.00 82 1017.9
20260504021708 11 88 0.0 0.0 0.00 0.00 0.00 80 1017.9
20260504021203 12 88 0.0 0.0 0.00 0.00 0.00 80 1017.9
20260504020659 12 88 0.0 0.0 0.00 0.00 0.00 80 1017.8
20260504020153 12 88 0.0 0.0 0.00 0.00 0.00 81 1017.8
20260504020133 12 88 0.0 0.0 0.00 0.00 0.00 82 1018.0
20260504015144 12 88 0.0 0.0 0.00 0.00 0.00 75 1017.8
20260504014640 13 88 0.0 0.0 0.00 0.00 0.00 78 1017.7
20260504014354 13 88 0.0 0.0 0.00 0.00 0.00 77 1017.6
20260504013632 13 88 0.0 0.0 0.00 0.00 0.00 78 1017.5
20260504013116 13 87 0.0 0.0 0.00 0.00 0.00 72 1017.3
20260504012607 13 88 0.0 0.0 0.00 0.00 0.00 73 1017.5
20260504012106 13 88 0.0 0.0 0.00 0.00 0.00 73 1017.1
20260504011538 14 88 0.0 0.0 0.00 0.00 0.00 74 1017.2
20260504011025 15 88 0.0 0.0 0.00 0.00 0.00 74 1017.4
20260504010518 15 88 0.0 0.0 0.00 0.00 0.00 74 1017.3
20260504005953 15 88 0.0 0.0 0.00 0.00 0.00 67 1017.3
20260504005636 16 88 0.0 0.0 0.00 0.00 0.00 69 1017.1
20260504004904 16 87 0.0 0.0 0.00 0.00 0.00 65 1017.0
20260504004325 16 86 0.0 0.0 0.00 0.00 0.00 62 1016.9
20260504003820 16 88 0.0 0.0 0.00 0.00 0.00 58 1016.8
20260504003316 17 88 0.0 0.0 0.00 0.00 0.00 62 1016.8
20260504002811 17 87 0.0 0.0 0.00 0.00 0.00 56 1016.6
20260504002307 17 88 0.0 0.0 0.00 0.00 0.00 57 1016.8
20260504001803 18 84 0.0 0.0 0.00 0.00 0.00 53 1016.7
20260504001258 18 84 0.0 0.0 0.00 0.00 0.00 52 1016.6
20260504000754 19 90 0.0 1.6 0.00 0.00 0.00 49 1016.5
20260504000251 19 64 1.6 1.6 0.00 0.00 0.00 50 1016.6
20260503235746 20 86 0.0 0.0 0.00 0.00 0.00 47 1016.7
20260503235243 21 93 0.0 0.0 0.00 0.00 0.00 45 1016.5
20260503234958 21 102 0.0 1.6 0.00 0.00 0.00 41 1016.8
20260503234234 22 162 0.0 0.0 0.00 0.00 0.00 39 1016.6
20260503233730 22 213 1.6 3.2 0.00 0.00 0.00 37 1016.7
20260503233227 23 279 0.0 1.6 0.00 0.00 0.00 38 1016.8
20260503232721 23 303 4.8 6.4 0.00 0.00 0.00 37 1016.7
20260503232217 23 223 1.6 3.2 0.00 0.00 0.00 38 1016.7
20260503231711 23 310 4.8 4.8 0.00 0.00 0.00 35 1016.7
20260503231208 23 309 3.2 4.8 0.00 0.00 0.00 36 1016.7
20260503230704 23 295 4.8 4.8 0.00 0.00 0.00 36 1016.6
20260503230158 23 19 1.6 4.8 0.00 0.00 0.00 38 1016.5
20260503225655 23 220 0.0 3.2 0.00 0.00 0.00 37 1016.7
20260503225149 24 298 3.2 6.4 0.00 0.00 0.00 38 1016.6
20260503224646 23 323 3.2 4.8 0.00 0.00 0.00 34 1016.6
20260503224141 23 221 4.8 4.8 0.00 0.00 0.00 35 1016.7
20260503223638 23 278 6.4 16.1 0.00 0.00 0.00 37 1016.7
20260503223133 23 237 3.2 11.3 0.00 0.00 0.00 36 1017.0
20260503222630 23 227 3.2 9.7 0.00 0.00 0.00 37 1016.6
20260503222124 24 336 0.0 3.2 0.00 0.00 0.00 39 1016.9
20260503222107 24 223 6.4 9.7 0.00 0.00 0.00 37 1016.7
20260503221339 25 270 11.3 14.5 0.00 0.00 0.00 35 1016.8
20260503220613 24 310 4.8 9.7 0.00 0.00 0.00 35 1016.8
20260503220108 24 263 4.8 9.7 0.00 0.00 0.00 33 1016.8
20260503215603 25 352 4.8 11.3 0.00 0.00 0.00 36 1016.7
20260503215314 24 295 1.6 9.7 0.00 0.00 0.00 37 1016.6
20260503214526 24 229 3.2 6.4 0.00 0.00 0.00 37 1016.8
20260503214003 23 312 4.8 12.9 0.00 0.00 0.00 38 1016.8
20260503213502 23 203 3.2 4.8 0.00 0.00 0.00 37 1016.7
20260503212947 24 264 4.8 9.7 0.00 0.00 0.00 35 1016.7
20260503212918 23 306 0.0 1.6 0.00 0.00 0.00 39 1017.1
20260503211930 23 256 9.7 12.9 0.00 0.00 0.00 37 1017.1
20260503211346 24 0 6.4 12.9 0.00 0.00 0.00 35 1017.0
20260503210842 24 313 4.8 9.7 0.00 0.00 0.00 34 1017.1
20260503210340 24 259 6.4 9.7 0.00 0.00 0.00 34 1017.2
20260503205825 24 294 1.6 11.3 0.00 0.00 0.00 39 1017.3
20260503205321 24 296 4.8 6.4 0.00 0.00 0.00 38 1017.3
20260503204816 25 214 4.8 11.3 0.00 0.00 0.00 36 1017.2
20260503204313 24 324 1.6 9.7 0.00 0.00 0.00 35 1017.6
20260503203809 24 280 9.7 12.9 0.00 0.00 0.00 39 1017.6
20260503203525 25 220 6.4 11.3 0.00 0.00 0.00 35 1017.6
20260503202800 23 254 6.4 14.5 0.00 0.00 0.00 36 1017.7
20260503202256 24 138 0.0 6.4 0.00 0.00 0.00 34 1017.8
20260503201752 23 36 9.7 11.3 0.00 0.00 0.00 35 1018.0
20260503201249 25 65 3.2 9.7 0.00 0.00 0.00 36 1017.8
20260503200745 25 270 4.8 4.8 0.00 0.00 0.00 34 1017.8
20260503200240 24 64 4.8 9.7 0.00 0.00 0.00 37 1017.9
20260503195736 23 23 3.2 11.3 0.00 0.00 0.00 35 1018.0
20260503195232 24 217 3.2 9.7 0.00 0.00 0.00 37 1017.9
20260503194728 24 197 4.8 12.9 0.00 0.00 0.00 34 1017.9
20260503194224 23 307 3.2 12.9 0.00 0.00 0.00 38 1018.3
20260503193938 23 291 3.2 6.4 0.00 0.00 0.00 35 1018.3
20260503193216 24 351 1.6 6.4 0.00 0.00 0.00 36 1018.5
20260503192712 23 198 3.2 4.8 0.00 0.00 0.00 40 1018.6
20260503192207 24 285 4.8 14.5 0.00 0.00 0.00 37 1018.6
20260503191704 24 220 6.4 17.7 0.00 0.00 0.00 37 1018.7
20260503191159 24 327 6.4 16.1 0.00 0.00 0.00 36 1018.8
20260503190655 24 16 3.2 6.4 0.00 0.00 0.00 37 1018.9
20260503190149 24 247 3.2 9.7 0.00 0.00 0.00 36 1018.9
20260503185645 23 191 3.2 9.7 0.00 0.00 0.00 34 1018.8
20260503185141 23 201 0.0 11.3 0.00 0.00 0.00 35 1019.2
20260503184638 23 342 1.6 14.5 0.00 0.00 0.00 36 1019.1
20260503184133 24 128 4.8 9.7 0.00 0.00 0.00 35 1019.2
20260503183848 24 282 3.2 9.7 0.00 0.00 0.00 35 1019.2
20260503183346 23 215 3.2 4.8 0.00 0.00 0.00 39 1019.5
20260503182620 23 277 4.8 9.7 0.00 0.00 0.00 37 1019.4
20260503182116 23 81 9.7 12.9 0.00 0.00 0.00 36 1019.6
20260503181612 23 15 3.2 12.9 0.00 0.00 0.00 37 1019.6
20260503181329 23 15 3.2 11.3 0.00 0.00 0.00 36 1019.6
20260503180603 23 284 8.0 11.3 0.00 0.00 0.00 34 1019.8
20260503180056 23 315 3.2 4.8 0.00 0.00 0.00 37 1019.7
20260503175545 23 339 4.8 9.7 0.00 0.00 0.00 38 1019.8
20260503175009 23 201 4.8 14.5 0.00 0.00 0.00 39 1019.7
20260503174712 23 38 6.4 9.7 0.00 0.00 0.00 37 1019.8
20260503173928 23 355 3.2 9.7 0.00 0.00 0.00 33 1019.8
20260503173842 22 168 1.6 3.2 0.00 0.00 0.00 34 1019.8
20260503172822 23 299 8.0 12.9 0.00 0.00 0.00 38 1019.8
20260503172318 22 247 3.2 14.5 0.00 0.00 0.00 34 1020.0
20260503171814 22 141 3.2 6.4 0.00 0.00 0.00 35 1020.0
20260503171312 22 102 6.4 12.9 0.00 0.00 0.00 37 1020.2
20260503171028 22 242 8.0 12.9 0.00 0.00 0.00 35 1020.1
20260503170303 23 204 0.0 6.4 0.00 0.00 0.00 36 1020.3
20260503150346 22 98 1.6 6.4 0.00 0.00 0.00 38 1021.3
20260503140118 18 78 0.0 3.2 0.00 0.00 0.00 59 1020.7
20260503131253 13 158 0.0 1.6 0.00 0.00 0.00 81 1020.6
20260503130749 13 294 1.6 1.6 0.00 0.00 0.00 83 1020.6
20260503130508 12 105 0.0 0.0 0.00 0.00 0.00 92 1020.5
20260503120156 7 128 0.0 0.0 0.00 0.00 0.00 98 1020.3
20260503110433 5 110 0.0 0.0 0.00 0.00 0.00 98 1020.0
20260503100243 5 109 0.0 0.0 0.00 0.00 0.00 97 1019.4
20260503090154 5 108 0.0 0.0 0.00 0.00 0.00 97 1018.9
20260503081618 6 84 0.0 0.0 0.00 0.00 0.00 97 1019.0
20260503081115 6 111 0.0 0.0 0.00 0.00 0.00 97 1019.0
20260503080610 6 106 0.0 0.0 0.00 0.00 0.00 97 1019.0
20260503080106 6 112 0.0 0.0 0.00 0.00 0.00 97 1018.9
20260503072418 6 101 0.0 0.0 0.00 0.00 0.00 96 1018.2
20260503071842 6 101 0.0 0.0 0.00 0.00 0.00 96 1018.4
20260503071323 6 101 0.0 0.0 0.00 0.00 0.00 96 1018.6
20260503070819 6 101 0.0 0.0 0.00 0.00 0.00 96 1018.5
20260503070314 7 101 0.0 0.0 0.00 0.00 0.00 96 1018.5